| time (UTC) | temp F | wind direction | speed knots | gust knots | rain 1hr in | rain 24hr in | rain mn in | humidity % | barometer mb |
| 20260507233536 | 51 | 306 | 6.1 | 11.3 | 0.00 | 0.00 | 0.00 | 50 | 1012.1 |
| 20260507233036 | 51 | 304 | 2.6 | 9.6 | 0.00 | 0.00 | 0.00 | 52 | 1012.1 |
| 20260507232535 | 51 | 285 | 3.5 | 16.5 | 0.00 | 0.00 | 0.00 | 50 | 1012.1 |
| 20260507232036 | 52 | 287 | 8.7 | 16.5 | 0.00 | 0.00 | 0.00 | 50 | 1012.1 |
| 20260507231535 | 52 | 273 | 5.2 | 14.8 | 0.00 | 0.00 | 0.00 | 52 | 1011.9 |
| 20260507231035 | 52 | 288 | 4.3 | 12.2 | 0.00 | 0.00 | 0.00 | 52 | 1011.9 |
| 20260507230535 | 51 | 240 | 4.3 | 11.3 | 0.00 | 0.00 | 0.00 | 53 | 1012.0 |
| 20260507230035 | 51 | 315 | 6.1 | 13.9 | 0.00 | 0.00 | 0.00 | 52 | 1012.1 |
| 20260507225535 | 51 | 261 | 6.1 | 13.9 | 0.00 | 0.00 | 0.00 | 53 | 1012.0 |
| 20260507225035 | 51 | 220 | 7.0 | 13.0 | 0.00 | 0.00 | 0.00 | 54 | 1012.0 |
| 20260507224535 | 51 | 243 | 5.2 | 9.6 | 0.00 | 0.00 | 0.00 | 58 | 1012.1 |
| 20260507224034 | 51 | 192 | 5.2 | 8.7 | 0.00 | 0.00 | 0.00 | 57 | 1012.1 |
| 20260507223536 | 51 | 233 | 2.6 | 15.6 | 0.00 | 0.00 | 0.00 | 58 | 1012.1 |
| 20260507223034 | 51 | 234 | 6.1 | 11.3 | 0.00 | 0.00 | 0.00 | 57 | 1011.9 |
| 20260507222536 | 51 | 320 | 3.5 | 14.8 | 0.00 | 0.00 | 0.00 | 56 | 1012.0 |
| 20260507222033 | 51 | 329 | 7.0 | 14.8 | 0.00 | 0.00 | 0.00 | 55 | 1011.9 |
| 20260507221534 | 51 | 306 | 6.1 | 12.2 | 0.00 | 0.00 | 0.00 | 54 | 1011.9 |
| 20260507221033 | 51 | 307 | 5.2 | 11.3 | 0.00 | 0.00 | 0.00 | 54 | 1011.8 |
| 20260507220532 | 52 | 322 | 5.2 | 11.3 | 0.00 | 0.00 | 0.00 | 52 | 1011.9 |
| 20260507220032 | 52 | 286 | 4.3 | 9.6 | 0.00 | 0.00 | 0.00 | 51 | 1011.8 |
| 20260507215532 | 52 | 285 | 2.6 | 11.3 | 0.00 | 0.00 | 0.00 | 49 | 1011.7 |
| 20260507215031 | 52 | 293 | 5.2 | 13.0 | 0.00 | 0.00 | 0.00 | 52 | 1011.8 |
| 20260507214531 | 52 | 229 | 6.1 | 13.0 | 0.00 | 0.00 | 0.00 | 51 | 1011.8 |
| 20260507214031 | 52 | 256 | 7.0 | 13.0 | 0.00 | 0.00 | 0.00 | 51 | 1011.8 |
| 20260507213531 | 52 | 232 | 4.3 | 14.8 | 0.00 | 0.00 | 0.00 | 51 | 1011.7 |
| 20260507213031 | 53 | 277 | 7.8 | 14.8 | 0.00 | 0.00 | 0.00 | 49 | 1011.5 |
| 20260507212532 | 54 | 355 | 3.5 | 13.9 | 0.00 | 0.00 | 0.00 | 48 | 1011.6 |
| 20260507212030 | 54 | 298 | 5.2 | 12.2 | 0.00 | 0.00 | 0.00 | 49 | 1011.4 |
| 20260507211529 | 54 | 263 | 4.3 | 11.3 | 0.00 | 0.00 | 0.00 | 49 | 1011.3 |
| 20260507211029 | 54 | 285 | 3.5 | 9.6 | 0.00 | 0.00 | 0.00 | 51 | 1011.2 |
| 20260507210528 | 54 | 313 | 1.7 | 9.6 | 0.00 | 0.00 | 0.00 | 51 | 1011.3 |
| 20260507210028 | 54 | 286 | 4.3 | 15.6 | 0.00 | 0.00 | 0.00 | 51 | 1011.2 |
| 20260507205528 | 54 | 316 | 4.3 | 15.6 | 0.00 | 0.00 | 0.00 | 49 | 1011.2 |
| 20260507205027 | 55 | 281 | 3.5 | 11.3 | 0.00 | 0.00 | 0.00 | 53 | 1011.1 |
| 20260507204525 | 54 | 242 | 3.5 | 11.3 | 0.00 | 0.00 | 0.00 | 51 | 1011.1 |
| 20260507204024 | 55 | 261 | 5.2 | 11.3 | 0.00 | 0.00 | 0.00 | 51 | 1011.0 |
| 20260507203523 | 55 | 298 | 3.5 | 10.4 | 0.00 | 0.00 | 0.00 | 50 | 1011.1 |
| 20260507203025 | 54 | 321 | 2.6 | 13.0 | 0.00 | 0.00 | 0.00 | 53 | 1011.2 |
| 20260507202521 | 54 | 331 | 5.2 | 12.2 | 0.00 | 0.00 | 0.00 | 54 | 1011.3 |
| 20260507202021 | 53 | 313 | 3.5 | 15.6 | 0.00 | 0.00 | 0.00 | 52 | 1011.4 |
| 20260507201521 | 54 | 323 | 2.6 | 15.6 | 0.00 | 0.00 | 0.00 | 52 | 1011.4 |
| 20260507201021 | 54 | 313 | 4.3 | 12.2 | 0.00 | 0.00 | 0.00 | 55 | 1011.4 |
| 20260507200520 | 54 | 337 | 2.6 | 9.6 | 0.00 | 0.00 | 0.00 | 53 | 1011.4 |
| 20260507200022 | 54 | 326 | 3.5 | 8.7 | 0.00 | 0.00 | 0.00 | 56 | 1011.4 |
| 20260507195519 | 54 | 273 | 4.3 | 12.2 | 0.00 | 0.00 | 0.00 | 54 | 1011.5 |
| 20260507195021 | 53 | 280 | 6.1 | 12.2 | 0.00 | 0.00 | 0.00 | 55 | 1011.4 |
| 20260507194522 | 53 | 9 | 3.5 | 7.8 | 0.00 | 0.00 | 0.00 | 55 | 1011.6 |
| 20260507194017 | 53 | 355 | 4.3 | 12.2 | 0.00 | 0.00 | 0.00 | 54 | 1011.6 |
| 20260507193517 | 54 | 266 | 7.8 | 12.2 | 0.00 | 0.00 | 0.00 | 54 | 1011.6 |
| 20260507193024 | 54 | 266 | 1.7 | 10.4 | 0.00 | 0.00 | 0.00 | 57 | 1011.5 |
| 20260507192517 | 54 | 28 | 4.3 | 10.4 | 0.00 | 0.00 | 0.00 | 56 | 1011.4 |
| 20260507192016 | 54 | 310 | 3.5 | 7.8 | 0.00 | 0.00 | 0.00 | 56 | 1011.6 |
| 20260507191516 | 54 | 5 | 1.7 | 8.7 | 0.00 | 0.00 | 0.00 | 56 | 1011.5 |
| 20260507191015 | 55 | 322 | 1.7 | 8.7 | 0.00 | 0.00 | 0.00 | 53 | 1011.6 |
| 20260507190515 | 55 | 82 | 2.6 | 10.4 | 0.00 | 0.00 | 0.00 | 60 | 1011.5 |
| 20260507190015 | 54 | 273 | 3.5 | 9.6 | 0.00 | 0.00 | 0.00 | 57 | 1011.5 |
| 20260507185515 | 53 | 348 | 1.7 | 9.6 | 0.00 | 0.00 | 0.00 | 61 | 1011.7 |
| 20260507185015 | 53 | 287 | 4.3 | 9.6 | 0.00 | 0.00 | 0.00 | 56 | 1011.7 |
| 20260507184515 | 53 | 315 | 1.7 | 7.0 | 0.00 | 0.00 | 0.00 | 57 | 1011.7 |
| 20260507184014 | 53 | 319 | 3.5 | 10.4 | 0.00 | 0.00 | 0.00 | 56 | 1011.7 |
| 20260507183514 | 53 | 304 | 4.3 | 10.4 | 0.00 | 0.00 | 0.00 | 56 | 1011.7 |
| 20260507183018 | 54 | 5 | 2.6 | 10.4 | 0.00 | 0.00 | 0.00 | 58 | 1011.7 |
| 20260507182513 | 54 | 321 | 3.5 | 10.4 | 0.00 | 0.00 | 0.00 | 57 | 1011.6 |
| 20260507182013 | 54 | 319 | 3.5 | 8.7 | 0.00 | 0.00 | 0.00 | 55 | 1011.7 |
| 20260507181512 | 55 | 317 | 4.3 | 9.6 | 0.00 | 0.00 | 0.00 | 53 | 1011.5 |
| 20260507181011 | 54 | 268 | 2.6 | 8.7 | 0.00 | 0.00 | 0.00 | 56 | 1011.5 |
| 20260507180510 | 53 | 306 | 4.3 | 8.7 | 0.00 | 0.00 | 0.00 | 56 | 1011.7 |
| 20260507180014 | 53 | 319 | 1.7 | 8.7 | 0.00 | 0.00 | 0.00 | 57 | 1011.7 |
| 20260507175509 | 53 | 277 | 1.7 | 8.7 | 0.00 | 0.00 | 0.00 | 58 | 1011.7 |
| 20260507175009 | 53 | 226 | 3.5 | 7.0 | 0.00 | 0.00 | 0.00 | 55 | 1011.6 |
| 20260507174509 | 53 | 311 | 1.7 | 7.0 | 0.00 | 0.00 | 0.00 | 55 | 1011.7 |
| 20260507174007 | 53 | 260 | 1.7 | 7.0 | 0.00 | 0.00 | 0.00 | 56 | 1011.8 |
| 20260507173507 | 53 | 355 | 1.7 | 9.6 | 0.00 | 0.00 | 0.00 | 57 | 1011.8 |
| 20260507173008 | 53 | 337 | 3.5 | 8.7 | 0.00 | 0.00 | 0.00 | 58 | 1011.9 |
| 20260507172507 | 53 | 208 | 5.2 | 11.3 | 0.00 | 0.00 | 0.00 | 54 | 1011.9 |
| 20260507172007 | 54 | 251 | 7.0 | 11.3 | 0.00 | 0.00 | 0.00 | 53 | 1011.9 |
| 20260507171505 | 54 | 225 | 3.5 | 8.7 | 0.00 | 0.00 | 0.00 | 58 | 1011.9 |
| 20260507171004 | 53 | 219 | 0.9 | 10.4 | 0.00 | 0.00 | 0.00 | 56 | 1012.0 |
| 20260507170504 | 53 | 216 | 7.0 | 10.4 | 0.00 | 0.00 | 0.00 | 56 | 1012.0 |
| 20260507170003 | 53 | 223 | 4.3 | 8.7 | 0.00 | 0.00 | 0.00 | 58 | 1012.1 |
| 20260507165502 | 53 | 236 | 2.6 | 6.1 | 0.00 | 0.00 | 0.00 | 59 | 1012.2 |
| 20260507165003 | 53 | 248 | 2.6 | 8.7 | 0.00 | 0.00 | 0.00 | 58 | 1012.1 |
| 20260507164505 | 53 | 348 | 2.6 | 8.7 | 0.00 | 0.00 | 0.00 | 57 | 1012.2 |
| 20260507164001 | 53 | 323 | 4.3 | 8.7 | 0.00 | 0.00 | 0.00 | 60 | 1012.2 |
| 20260507163601 | 52 | 267 | 3.5 | 8.7 | 0.00 | 0.00 | 0.00 | 61 | 1012.1 |
| 20260507163100 | 52 | 318 | 3.5 | 10.4 | 0.00 | 0.00 | 0.00 | 57 | 1012.2 |
| 20260507162559 | 52 | 323 | 3.5 | 10.4 | 0.00 | 0.00 | 0.00 | 61 | 1012.3 |
| 20260507162059 | 53 | 261 | 0.9 | 7.0 | 0.00 | 0.00 | 0.00 | 61 | 1012.4 |
| 20260507161606 | 53 | 269 | 2.6 | 6.1 | 0.00 | 0.00 | 0.00 | 62 | 1012.4 |
| 20260507161057 | 52 | 306 | 2.6 | 8.7 | 0.00 | 0.00 | 0.00 | 62 | 1012.4 |
| 20260507160557 | 51 | 260 | 4.3 | 8.7 | 0.00 | 0.00 | 0.00 | 61 | 1012.5 |
| 20260507160057 | 51 | 290 | 2.6 | 7.8 | 0.00 | 0.00 | 0.00 | 60 | 1012.5 |
| 20260507155556 | 52 | 210 | 3.5 | 9.6 | 0.00 | 0.00 | 0.00 | 57 | 1012.5 |
| 20260507155056 | 52 | 322 | 3.5 | 10.4 | 0.00 | 0.00 | 0.00 | 58 | 1012.6 |
| 20260507154557 | 52 | 288 | 4.3 | 9.6 | 0.00 | 0.00 | 0.00 | 56 | 1012.5 |
| 20260507154057 | 52 | 300 | 7.0 | 10.4 | 0.00 | 0.00 | 0.00 | 54 | 1012.5 |
| 20260507153555 | 52 | 251 | 5.2 | 10.4 | 0.00 | 0.00 | 0.00 | 51 | 1012.5 |
| 20260507153057 | 52 | 234 | 4.3 | 13.9 | 0.00 | 0.00 | 0.00 | 54 | 1012.6 |
| 20260507152555 | 53 | 217 | 6.1 | 13.9 | 0.00 | 0.00 | 0.00 | 54 | 1012.6 |
| 20260507152056 | 52 | 217 | 3.5 | 13.0 | 0.00 | 0.00 | 0.00 | 61 | 1012.6 |
| 20260507151552 | 52 | 199 | 7.0 | 12.2 | 0.00 | 0.00 | 0.00 | 60 | 1012.6 |
| 20260507151051 | 51 | 250 | 4.3 | 10.4 | 0.00 | 0.00 | 0.00 | 56 | 1012.8 |
| 20260507150551 | 51 | 242 | 7.0 | 10.4 | 0.00 | 0.00 | 0.00 | 59 | 1012.7 |
| 20260507150051 | 51 | 308 | 1.7 | 10.4 | 0.00 | 0.00 | 0.00 | 61 | 1012.8 |
| 20260507145551 | 51 | 241 | 5.2 | 10.4 | 0.00 | 0.00 | 0.00 | 62 | 1012.8 |
| 20260507145052 | 52 | 205 | 7.0 | 11.3 | 0.00 | 0.00 | 0.00 | 60 | 1012.8 |
| 20260507144550 | 52 | 232 | 5.2 | 8.7 | 0.00 | 0.00 | 0.00 | 60 | 1012.8 |
| 20260507144050 | 51 | 299 | 4.3 | 8.7 | 0.00 | 0.00 | 0.00 | 62 | 1012.8 |
| 20260507143547 | 51 | 257 | 3.5 | 8.7 | 0.00 | 0.00 | 0.00 | 61 | 1012.9 |
| 20260507143104 | 52 | 226 | 4.3 | 7.8 | 0.00 | 0.00 | 0.00 | 64 | 1013.0 |
| 20260507142545 | 51 | 247 | 1.7 | 4.3 | 0.00 | 0.00 | 0.00 | 65 | 1013.0 |
| 20260507142045 | 51 | 302 | 2.6 | 6.1 | 0.00 | 0.00 | 0.00 | 62 | 1013.1 |
| 20260507141603 | 51 | 302 | 2.6 | 9.6 | 0.00 | 0.00 | 0.00 | 63 | 1013.2 |
| 20260507141046 | 51 | 256 | 2.6 | 9.6 | 0.00 | 0.00 | 0.00 | 67 | 1013.3 |
| 20260507140544 | 50 | 243 | 3.5 | 8.7 | 0.00 | 0.00 | 0.00 | 67 | 1013.4 |
| 20260507140041 | 50 | 288 | 2.6 | 8.7 | 0.00 | 0.01 | 0.00 | 68 | 1013.3 |
| 20260507135539 | 50 | 279 | 1.7 | 7.0 | 0.00 | 0.01 | 0.00 | 70 | 1013.4 |
| 20260507135038 | 49 | 286 | 0.9 | 7.8 | 0.00 | 0.01 | 0.00 | 69 | 1013.4 |
| 20260507134540 | 49 | 232 | 1.7 | 7.0 | 0.00 | 0.01 | 0.00 | 70 | 1013.5 |
| 20260507134036 | 49 | 255 | 3.5 | 6.1 | 0.00 | 0.01 | 0.00 | 72 | 1013.5 |
| 20260507133535 | 49 | 222 | 0.9 | 5.2 | 0.00 | 0.01 | 0.00 | 73 | 1013.5 |
| 20260507133037 | 49 | 232 | 0.9 | 2.6 | 0.00 | 0.01 | 0.00 | 74 | 1013.6 |
| 20260507132533 | 48 | 111 | 0.9 | 3.5 | 0.00 | 0.01 | 0.00 | 75 | 1013.6 |
| 20260507132031 | 48 | 107 | 0.9 | 3.5 | 0.00 | 0.01 | 0.00 | 76 | 1013.7 |
| 20260507131537 | 47 | 222 | 0.0 | 3.5 | 0.00 | 0.01 | 0.00 | 76 | 1013.8 |
| 20260507131033 | 47 | 217 | 1.7 | 3.5 | 0.00 | 0.01 | 0.00 | 76 | 1013.7 |
| 20260507130528 | 46 | 190 | 0.0 | 2.6 | 0.00 | 0.01 | 0.00 | 78 | 1013.8 |
| 20260507130038 | 46 | 142 | 0.9 | 3.5 | 0.00 | 0.01 | 0.00 | 78 | 1013.8 |
| 20260507125525 | 45 | 225 | 0.0 | 3.5 | 0.00 | 0.01 | 0.00 | 80 | 1013.8 |
| 20260507125027 | 45 | 225 | 1.7 | 2.6 | 0.00 | 0.01 | 0.00 | 80 | 1013.7 |
| 20260507124522 | 44 | 184 | 0.9 | 3.5 | 0.00 | 0.01 | 0.00 | 81 | 1013.7 |
| 20260507124022 | 44 | 360 | 0.0 | 4.3 | 0.00 | 0.01 | 0.00 | 82 | 1013.7 |
| 20260507123521 | 43 | 360 | 1.7 | 4.3 | 0.00 | 0.01 | 0.00 | 82 | 1013.8 |
| 20260507123021 | 43 | 226 | 1.7 | 5.2 | 0.00 | 0.01 | 0.00 | 82 | 1013.7 |
| 20260507122519 | 43 | 216 | 1.7 | 5.2 | 0.00 | 0.01 | 0.00 | 83 | 1013.7 |
| 20260507122018 | 42 | 227 | 1.7 | 3.5 | 0.00 | 0.01 | 0.00 | 83 | 1013.8 |
| 20260507121518 | 42 | 186 | 1.7 | 3.5 | 0.00 | 0.01 | 0.00 | 84 | 1013.8 |
| 20260507121017 | 42 | 360 | 0.9 | 3.5 | 0.00 | 0.01 | 0.00 | 86 | 1013.8 |
| 20260507120515 | 42 | 215 | 0.9 | 3.5 | 0.00 | 0.01 | 0.00 | 88 | 1013.8 |
| 20260507120014 | 41 | 360 | 0.9 | 2.6 | 0.00 | 0.02 | 0.00 | 89 | 1013.7 |
| 20260507115514 | 40 | 360 | 0.0 | 0.0 | 0.00 | 0.02 | 0.00 | 90 | 1013.8 |
| 20260507115013 | 40 | 360 | 0.0 | 0.0 | 0.00 | 0.02 | 0.00 | 91 | 1013.8 |
| 20260507114520 | 39 | 360 | 0.0 | 0.0 | 0.00 | 0.02 | 0.00 | 91 | 1013.7 |
| 20260507114013 | 39 | 360 | 0.0 | 0.0 | 0.00 | 0.02 | 0.00 | 92 | 1013.7 |
| 20260507113512 | 38 | 360 | 0.0 | 0.0 | 0.00 | 0.02 | 0.00 | 93 | 1013.7 |
| 20260507113012 | 38 | 360 | 0.0 | 0.0 | 0.00 | 0.02 | 0.00 | 93 | 1013.7 |
| 20260507112514 | 37 | 360 | 0.0 | 0.0 | 0.00 | 0.02 | 0.00 | 94 | 1013.8 |
| 20260507112012 | 37 | 360 | 0.0 | 0.0 | 0.00 | 0.02 | 0.00 | 94 | 1013.7 |
| 20260507111511 | 37 | 360 | 0.0 | 0.0 | 0.00 | 0.02 | 0.00 | 93 | 1013.6 |
| 20260507111011 | 36 | 360 | 0.0 | 0.0 | 0.00 | 0.02 | 0.00 | 93 | 1013.6 |
| 20260507110511 | 36 | 360 | 0.0 | 0.0 | 0.00 | 0.02 | 0.00 | 93 | 1013.5 |
| 20260507110013 | 36 | 360 | 0.0 | 0.0 | 0.00 | 0.03 | 0.00 | 93 | 1013.4 |
| 20260507105511 | 36 | 360 | 0.0 | 0.0 | 0.00 | 0.03 | 0.00 | 93 | 1013.5 |
| 20260507105013 | 36 | 360 | 0.0 | 0.0 | 0.00 | 0.03 | 0.00 | 93 | 1013.4 |
| 20260507104511 | 35 | 360 | 0.0 | 0.0 | 0.00 | 0.03 | 0.00 | 93 | 1013.4 |
| 20260507104010 | 35 | 360 | 0.0 | 0.0 | 0.00 | 0.03 | 0.00 | 93 | 1013.4 |
| 20260507103510 | 35 | 360 | 0.0 | 0.0 | 0.00 | 0.03 | 0.00 | 93 | 1013.4 |
| 20260507103010 | 35 | 360 | 0.0 | 0.0 | 0.00 | 0.03 | 0.00 | 93 | 1013.3 |
| 20260507102509 | 35 | 360 | 0.0 | 0.0 | 0.00 | 0.03 | 0.00 | 93 | 1013.2 |
| 20260507102009 | 35 | 360 | 0.0 | 0.0 | 0.00 | 0.03 | 0.00 | 92 | 1013.2 |
| 20260507101510 | 35 | 360 | 0.0 | 0.0 | 0.00 | 0.03 | 0.00 | 92 | 1013.1 |
| 20260507101009 | 35 | 360 | 0.0 | 0.0 | 0.00 | 0.03 | 0.00 | 92 | 1013.1 |
| 20260507100508 | 35 | 360 | 0.0 | 0.0 | 0.00 | 0.03 | 0.00 | 92 | 1013.1 |
| 20260507100008 | 36 | 360 | 0.0 | 0.0 | 0.00 | 0.04 | 0.00 | 92 | 1013.1 |
| 20260507095507 | 36 | 360 | 0.0 | 0.0 | 0.00 | 0.04 | 0.00 | 92 | 1013.1 |
| 20260507095009 | 36 | 360 | 0.0 | 0.0 | 0.00 | 0.04 | 0.00 | 92 | 1013.1 |
| 20260507094506 | 36 | 360 | 0.0 | 0.0 | 0.00 | 0.04 | 0.00 | 92 | 1013.1 |
| 20260507094011 | 36 | 360 | 0.0 | 0.0 | 0.00 | 0.04 | 0.00 | 93 | 1013.2 |
| 20260507093506 | 36 | 360 | 0.0 | 0.0 | 0.00 | 0.04 | 0.00 | 92 | 1013.2 |
| 20260507093006 | 36 | 360 | 0.0 | 0.0 | 0.00 | 0.04 | 0.00 | 92 | 1013.2 |
| 20260507092506 | 36 | 360 | 0.0 | 0.0 | 0.00 | 0.04 | 0.00 | 92 | 1013.2 |
| 20260507092005 | 36 | 360 | 0.0 | 0.0 | 0.00 | 0.04 | 0.00 | 92 | 1013.2 |
| 20260507091508 | 36 | 360 | 0.0 | 0.0 | 0.00 | 0.04 | 0.00 | 92 | 1013.1 |
| 20260507091005 | 36 | 360 | 0.0 | 0.0 | 0.00 | 0.04 | 0.00 | 92 | 1013.2 |
| 20260507090505 | 36 | 360 | 0.0 | 0.0 | 0.00 | 0.04 | 0.00 | 92 | 1013.2 |
| 20260507090004 | 36 | 360 | 0.0 | 0.0 | 0.00 | 0.06 | 0.00 | 92 | 1013.3 |
| 20260507085503 | 36 | 360 | 0.0 | 0.0 | 0.00 | 0.06 | 0.00 | 92 | 1013.2 |
| 20260507085003 | 36 | 360 | 0.0 | 0.0 | 0.00 | 0.06 | 0.00 | 92 | 1013.1 |
| 20260507084503 | 36 | 360 | 0.0 | 0.0 | 0.00 | 0.06 | 0.00 | 92 | 1013.2 |
| 20260507084001 | 36 | 360 | 0.0 | 0.0 | 0.00 | 0.06 | 0.00 | 92 | 1013.3 |
| 20260507083501 | 36 | 360 | 0.0 | 0.0 | 0.00 | 0.06 | 0.00 | 92 | 1013.3 |
| 20260507083000 | 37 | 360 | 0.0 | 0.0 | 0.00 | 0.06 | 0.00 | 91 | 1013.3 |
| 20260507082601 | 37 | 360 | 0.0 | 0.0 | 0.00 | 0.06 | 0.00 | 91 | 1013.4 |
| 20260507082100 | 37 | 360 | 0.0 | 0.0 | 0.00 | 0.06 | 0.00 | 91 | 1013.4 |
| 20260507081602 | 37 | 360 | 0.0 | 0.0 | 0.00 | 0.06 | 0.00 | 91 | 1013.5 |
| 20260507081101 | 37 | 360 | 0.0 | 0.0 | 0.00 | 0.06 | 0.00 | 91 | 1013.4 |
| 20260507080559 | 37 | 360 | 0.0 | 0.0 | 0.00 | 0.06 | 0.00 | 91 | 1013.4 |
| 20260507080116 | 37 | 360 | 0.0 | 0.0 | 0.00 | 0.06 | 0.00 | 91 | 1013.4 |
| 20260507075559 | 37 | 360 | 0.0 | 0.0 | 0.00 | 0.06 | 0.00 | 90 | 1013.5 |
| 20260507075057 | 37 | 360 | 0.0 | 0.0 | 0.00 | 0.06 | 0.00 | 90 | 1013.5 |
| 20260507074558 | 38 | 360 | 0.0 | 0.0 | 0.00 | 0.06 | 0.00 | 90 | 1013.5 |
| 20260507074054 | 38 | 360 | 0.0 | 0.0 | 0.00 | 0.06 | 0.00 | 90 | 1013.4 |
| 20260507073558 | 38 | 360 | 0.0 | 0.0 | 0.00 | 0.06 | 0.00 | 90 | 1013.5 |
| 20260507073053 | 38 | 360 | 0.0 | 0.0 | 0.00 | 0.06 | 0.00 | 89 | 1013.4 |
| 20260507072555 | 38 | 360 | 0.0 | 0.0 | 0.00 | 0.06 | 0.00 | 89 | 1013.5 |
| 20260507072052 | 38 | 360 | 0.0 | 0.0 | 0.00 | 0.06 | 0.00 | 89 | 1013.4 |
| 20260507071551 | 39 | 360 | 0.0 | 0.0 | 0.00 | 0.06 | 0.00 | 89 | 1013.4 |
| 20260507071050 | 39 | 360 | 0.0 | 0.0 | 0.00 | 0.06 | 0.00 | 88 | 1013.5 |
| 20260507070550 | 39 | 360 | 0.0 | 0.0 | 0.00 | 0.06 | 0.00 | 88 | 1013.6 |
| 20260507065552 | 39 | 360 | 0.0 | 0.0 | 0.00 | 0.08 | 0.00 | 88 | 1013.5 |
| 20260507065048 | 39 | 360 | 0.0 | 0.0 | 0.00 | 0.08 | 0.00 | 88 | 1013.6 |
| 20260507064619 | 39 | 360 | 0.0 | 0.0 | 0.00 | 0.08 | 0.00 | 88 | 1013.7 |
| 20260507064052 | 40 | 360 | 0.0 | 0.0 | 0.00 | 0.08 | 0.00 | 87 | 1013.6 |
| 20260507063547 | 40 | 360 | 0.0 | 0.0 | 0.00 | 0.08 | 0.00 | 88 | 1013.6 |
| 20260507063051 | 40 | 360 | 0.0 | 0.0 | 0.00 | 0.08 | 0.00 | 87 | 1013.6 |
| 20260507062546 | 39 | 360 | 0.0 | 0.0 | 0.00 | 0.08 | 0.00 | 87 | 1013.6 |
| 20260507062046 | 39 | 360 | 0.0 | 0.0 | 0.00 | 0.08 | 0.00 | 87 | 1013.8 |
| 20260507061545 | 39 | 360 | 0.0 | 0.0 | 0.00 | 0.08 | 0.00 | 88 | 1013.8 |
| 20260507061044 | 39 | 360 | 0.0 | 0.0 | 0.00 | 0.08 | 0.00 | 88 | 1013.8 |
| 20260507060544 | 39 | 360 | 0.0 | 0.0 | 0.00 | 0.08 | 0.00 | 87 | 1013.9 |
| 20260507060107 | 39 | 360 | 0.0 | 0.0 | 0.00 | 0.09 | 0.00 | 87 | 1013.9 |
| 20260507055547 | 39 | 360 | 0.0 | 0.0 | 0.00 | 0.09 | 0.00 | 87 | 1013.9 |
| 20260507055043 | 40 | 360 | 0.0 | 0.0 | 0.00 | 0.09 | 0.00 | 86 | 1013.9 |
| 20260507054548 | 40 | 360 | 0.0 | 0.0 | 0.00 | 0.09 | 0.00 | 86 | 1014.0 |
| 20260507054042 | 40 | 360 | 0.0 | 0.0 | 0.00 | 0.09 | 0.00 | 86 | 1014.0 |
| 20260507053542 | 40 | 360 | 0.0 | 0.0 | 0.00 | 0.09 | 0.00 | 86 | 1014.1 |
| 20260507053041 | 40 | 360 | 0.0 | 0.0 | 0.00 | 0.09 | 0.00 | 86 | 1014.0 |
| 20260507052541 | 40 | 360 | 0.0 | 0.0 | 0.00 | 0.09 | 0.00 | 86 | 1014.1 |
| 20260507052041 | 40 | 360 | 0.0 | 0.0 | 0.00 | 0.09 | 0.00 | 86 | 1014.0 |
| 20260507051558 | 40 | 360 | 0.0 | 0.0 | 0.00 | 0.09 | 0.00 | 86 | 1014.0 |
| 20260507051039 | 40 | 360 | 0.0 | 0.0 | 0.00 | 0.09 | 0.00 | 87 | 1014.1 |
| 20260507050538 | 40 | 360 | 0.0 | 0.0 | 0.00 | 0.09 | 0.00 | 86 | 1014.1 |
| 20260507050045 | 40 | 360 | 0.0 | 0.0 | 0.00 | 0.10 | 0.00 | 85 | 1014.1 |
| 20260507045538 | 40 | 360 | 0.0 | 0.0 | 0.00 | 0.10 | 0.00 | 86 | 1014.2 |
| 20260507045038 | 40 | 360 | 0.0 | 0.0 | 0.00 | 0.10 | 0.00 | 86 | 1014.2 |
| 20260507044538 | 40 | 360 | 0.0 | 0.0 | 0.00 | 0.10 | 0.00 | 85 | 1014.3 |
| 20260507044040 | 40 | 360 | 0.0 | 0.0 | 0.00 | 0.10 | 0.00 | 85 | 1014.3 |
| 20260507043535 | 40 | 360 | 0.0 | 0.0 | 0.00 | 0.10 | 0.00 | 85 | 1014.4 |
| 20260507043035 | 40 | 360 | 0.0 | 0.0 | 0.00 | 0.10 | 0.00 | 85 | 1014.5 |
| 20260507042534 | 40 | 360 | 0.0 | 0.0 | 0.00 | 0.10 | 0.00 | 85 | 1014.5 |
| 20260507042033 | 40 | 360 | 0.0 | 0.0 | 0.00 | 0.10 | 0.00 | 85 | 1014.4 |
| 20260507041532 | 40 | 360 | 0.0 | 0.0 | 0.00 | 0.10 | 0.00 | 85 | 1014.4 |
| 20260507041032 | 40 | 360 | 0.0 | 0.0 | 0.00 | 0.10 | 0.00 | 84 | 1014.5 |
| 20260507040533 | 41 | 360 | 0.0 | 0.0 | 0.00 | 0.10 | 0.00 | 84 | 1014.5 |
| 20260507040030 | 41 | 360 | 0.0 | 0.0 | 0.00 | 0.12 | 0.10 | 84 | 1014.6 |
| 20260507035530 | 41 | 360 | 0.0 | 0.0 | 0.00 | 0.12 | 0.10 | 84 | 1014.5 |
| 20260507035029 | 41 | 360 | 0.0 | 0.0 | 0.00 | 0.12 | 0.10 | 84 | 1014.6 |
| 20260507034530 | 41 | 355 | 0.0 | 0.0 | 0.00 | 0.12 | 0.10 | 83 | 1014.6 |
| 20260507034027 | 41 | 355 | 0.0 | 0.0 | 0.00 | 0.12 | 0.10 | 83 | 1014.6 |
| 20260507033528 | 42 | 355 | 0.0 | 0.0 | 0.00 | 0.12 | 0.10 | 82 | 1014.5 |
| 20260507033026 | 42 | 355 | 0.0 | 0.0 | 0.00 | 0.12 | 0.10 | 82 | 1014.3 |
| 20260507032526 | 42 | 355 | 0.0 | 0.0 | 0.00 | 0.12 | 0.10 | 82 | 1014.5 |
| 20260507032027 | 42 | 355 | 0.0 | 0.0 | 0.00 | 0.12 | 0.10 | 82 | 1014.5 |
| 20260507031524 | 42 | 355 | 0.0 | 0.0 | 0.00 | 0.12 | 0.10 | 82 | 1014.6 |
| 20260507031024 | 42 | 355 | 0.0 | 0.0 | 0.00 | 0.12 | 0.10 | 80 | 1014.6 |
| 20260507030524 | 42 | 355 | 0.0 | 0.0 | 0.00 | 0.12 | 0.10 | 80 | 1014.5 |
| 20260507030028 | 42 | 355 | 0.0 | 0.0 | 0.00 | 0.14 | 0.10 | 79 | 1014.4 |
| 20260507025522 | 43 | 355 | 0.0 | 0.0 | 0.00 | 0.14 | 0.10 | 79 | 1014.5 |
| 20260507025022 | 43 | 355 | 0.0 | 0.0 | 0.00 | 0.14 | 0.10 | 78 | 1014.4 |
| 20260507024526 | 43 | 355 | 0.0 | 0.0 | 0.00 | 0.14 | 0.10 | 78 | 1014.5 |
| 20260507024024 | 43 | 355 | 0.0 | 0.0 | 0.00 | 0.14 | 0.10 | 77 | 1014.4 |
| 20260507023520 | 43 | 360 | 0.0 | 0.0 | 0.00 | 0.14 | 0.10 | 77 | 1014.4 |
| 20260507023020 | 43 | 360 | 0.0 | 0.0 | 0.00 | 0.14 | 0.10 | 77 | 1014.4 |
| 20260507022520 | 43 | 360 | 0.0 | 0.0 | 0.00 | 0.14 | 0.10 | 77 | 1014.3 |
| 20260507022020 | 43 | 360 | 0.0 | 0.0 | 0.00 | 0.14 | 0.10 | 76 | 1014.3 |
| 20260507021520 | 43 | 360 | 0.0 | 0.0 | 0.00 | 0.14 | 0.10 | 76 | 1014.2 |
| 20260507021018 | 43 | 360 | 0.0 | 0.0 | 0.00 | 0.14 | 0.10 | 76 | 1014.1 |
| 20260507020518 | 43 | 355 | 0.0 | 0.0 | 0.00 | 0.14 | 0.10 | 76 | 1014.2 |
| 20260507020018 | 43 | 355 | 0.0 | 0.0 | 0.00 | 0.16 | 0.10 | 76 | 1014.2 |
| 20260507015523 | 43 | 355 | 0.0 | 0.0 | 0.00 | 0.16 | 0.10 | 75 | 1014.2 |
| 20260507015017 | 43 | 355 | 0.0 | 0.0 | 0.00 | 0.16 | 0.10 | 74 | 1014.3 |
| 20260507014518 | 43 | 355 | 0.0 | 0.0 | 0.00 | 0.16 | 0.10 | 75 | 1014.3 |
| 20260507014017 | 43 | 355 | 0.0 | 0.0 | 0.00 | 0.16 | 0.10 | 74 | 1014.3 |
| 20260507013516 | 43 | 355 | 0.0 | 0.0 | 0.00 | 0.16 | 0.10 | 74 | 1014.3 |
| 20260507013016 | 44 | 355 | 0.0 | 0.0 | 0.00 | 0.16 | 0.10 | 74 | 1014.2 |
| 20260507012515 | 44 | 355 | 0.0 | 0.0 | 0.00 | 0.16 | 0.10 | 74 | 1014.2 |
| 20260507012016 | 44 | 355 | 0.0 | 0.0 | 0.00 | 0.16 | 0.10 | 74 | 1014.2 |
| 20260507011515 | 44 | 355 | 0.0 | 0.0 | 0.00 | 0.16 | 0.10 | 74 | 1014.2 |
| 20260507011014 | 44 | 355 | 0.0 | 0.0 | 0.00 | 0.16 | 0.10 | 74 | 1014.3 |
| 20260507010514 | 44 | 355 | 0.0 | 0.0 | 0.00 | 0.16 | 0.10 | 74 | 1014.2 |
| 20260507010017 | 44 | 355 | 0.0 | 3.5 | 0.00 | 0.18 | 0.10 | 72 | 1014.1 |
| 20260507005513 | 44 | 355 | 0.9 | 3.5 | 0.00 | 0.18 | 0.10 | 73 | 1014.1 |
| 20260507005013 | 44 | 355 | 0.0 | 2.6 | 0.00 | 0.18 | 0.10 | 73 | 1014.0 |
| 20260507004518 | 44 | 355 | 0.9 | 2.6 | 0.00 | 0.18 | 0.10 | 73 | 1014.0 |
| 20260507004012 | 44 | 355 | 0.0 | 0.9 | 0.00 | 0.18 | 0.10 | 73 | 1014.1 |
| 20260507003512 | 44 | 355 | 0.0 | 0.9 | 0.00 | 0.18 | 0.10 | 73 | 1014.1 |
| 20260507003011 | 44 | 355 | 0.0 | 1.7 | 0.00 | 0.18 | 0.10 | 73 | 1014.0 |
| 20260507002511 | 44 | 355 | 0.9 | 1.7 | 0.00 | 0.18 | 0.10 | 72 | 1014.2 |
| 20260507002014 | 44 | 355 | 0.0 | 0.9 | 0.00 | 0.18 | 0.10 | 71 | 1014.0 |
| 20260507001515 | 45 | 355 | 0.0 | 2.6 | 0.00 | 0.18 | 0.10 | 71 | 1013.9 |
| 20260507001008 | 45 | 355 | 0.9 | 2.6 | 0.00 | 0.18 | 0.10 | 71 | 1013.9 |
| 20260507000508 | 45 | 355 | 0.9 | 4.3 | 0.00 | 0.18 | 0.10 | 72 | 1013.8 |
| 20260507000008 | 45 | 5 | 1.7 | 4.3 | 0.00 | 0.21 | 0.10 | 73 | 1013.7 |
| 20260506235508 | 45 | 319 | 0.0 | 4.3 | 0.00 | 0.21 | 0.10 | 74 | 1013.8 |
| 20260506235009 | 45 | 319 | 0.9 | 7.0 | 0.00 | 0.21 | 0.10 | 73 | 1013.8 |
| 20260506234509 | 45 | 312 | 2.6 | 7.0 | 0.00 | 0.21 | 0.10 | 72 | 1013.8 |
| 20260506234007 | 45 | 311 | 0.9 | 7.0 | 0.00 | 0.21 | 0.10 | 72 | 1013.8 |